SCP
0 0 0 0 0 0 0 0 0 0 0 0 0 0 0 0 0 0 0 0 0 0 0 0 0 0 0 0 0 0 0 0 0 0 0 0 0 0 0 0 0 0 0 0
0 0 0 0 0 0 0 0 0 0 0 0 0 0 0 0 0 0 0 0 0 0 0 0 0 0 0 0 0 0 0 0 0 0 0 0 0 0 0 0 0 0 0 0
0 0 0 0 0 0 0 0 0 0 0 0 0 0 0 0 0 0 0 0 0 0 0 0 0 0 0 0 0 0 0 0 0 0 0 0 0 0 0 0 0 0 0 0
0 0 0 0 0 0 0 0 0 0 0 0 0 0 0 0 0 0 0 0 0 0 0 0 0 0 0 0 0 0 0 0 0 0 0 0 0 0 0 0 0 0 0 0
0 0 0 0 0 0 0 0 0 0 0 0 0 0 0 0 0 0 0 0 0 0 0 0 0 0 0 0 0 0 0 0 0 0 0 0 0 0 0 0 0 0 0 0
0 0 0 0 0 0 0 0 0 0 0 0 0 0 0 0 0 0 0 0 0 0 0 0 0 0 0 0 0 0 0 0 0 0 0 0 0 0 0 0 0 0 0 0
0 0 0 0 0 0 0 0 0 0 0 0 0 0 0 0 0 0 0 0 0 0 0 0 0 0 0 0 0 0 0 0 0 0 0 0 0 0 0 0 0 0 0 0
0 0 0 0 0 0 0 0 0 0 0 0 0 0 0 0 0 0 0 0 0 0 0 0 0 0 0 0 0 0 0 0 0 0 0 0 0 0 0 0 0 0 0 0
0 0 0 0 0 0 0 0 0 0 0 0 0 0 0 0 0 0 0 0 0 0 0 0 0 0 0 0 0 0 0 0 0 0 0 0 0 0 0 0 0 0 0 0
0 0 0 0 0 0 0 0 0 0 0 0 0 0 0 0 0 0 0 0 0 0 0 0 0 0 0 0 0 0 0 0 0 0 0 0 0 0 0 0 0 0 0 0
0 0 0 0 0 0 0 0 0 0 0 0 0 0 0 0 0 0 0 0 0 0 0 0 0 0 0 0 0 0 0 0 0 0 0 0 0 0 0 0 0 0 0 0
0 0 0 0 0 0 0 0 0 0 0 0 0 0 0 0 0 0 0 0 0 0 0 0 0 0 0 0 0 0 0 0 0 0 0 0 0 0 0 0 0 0 0 0
0 0 0 0 0 0 0 0 0 0 0 0 0 0 0 0 0 0 0 0 0 0 0 0 0 0 0 0 0 0 0 0 0 0 0 0 0 0 0 0 0 0 0 0
0 0 0 0 0 0 0 0 0 0 0 0 0 0 0 0 0 0 0 0 0 0 0 0 0 0 0 0 0 0 0 0 0 0 0 0 0 0 0 0 0 0 0 0
0 0 0 0 0 0 0 0 0 0 0 0 0 0 0 0 0 0 0 0 0 0 0 0 0 0 0 0 0 0 0 0 0 0 0 0 0 0 0 0 0 0 0 0
0 0 0 0 0 0 0 0 0 0 0 0 0 0 0 0 0 0 0 0 0 0 0 0 0 0 0 0 0 0 0 0 0 0 0 0 0 0 0 0 0 0 0 0
0 0 0 0 0 0 0 0 0 0 0 0 0 0 0 0 0 0 0 0 0 0 0 0 0 0 0 0 0 0 0 0 0 0 0 0 0 0 0 0 0 0 0 0
0 0 0 0 0 0 0 0 0 0 0 0 0 0 0 0 0 0 0 0 0 0 0 0 0 0 0 0 0 0 0 0 0 0 0 0 0 0 0 0 0 0 0 0
0 0 0 0 0 0 0 0 0 0 0 0 0 0 0 0 0 0 0 0 0 0 0 0 0 0 0 0 0 0 0 0 0 0 0 0 0 0 0 0 0 0 0 0
0 0 0 0 0 0 0 0 0 0 0 0 0 0 0 0 0 0 0 0 0 0 0 0 0 0 0 0 0 0 0 0 0 0 0 0 0 0 0 0 0 0 0 0
0 0 0 0 0 0 0 0 0 0 0 0 0 0 0 0 0 0 0 0 0 0 0 0 0 0 0 0 0 0 0 0 0 0 0 0 0 0 0 0 0 0 0 0
0 0 0 0 0 0 0 0 0 0 0 0 0 0 0 0 0 0 0 0 0 0 0 0 0 0 0 0 0 0 0 0 0 0 0 0 0 0 0 0 0 0 0 0
0 0 0 0 0 0 0 0 0 0 0 0 0 0 0 0 0 0 0 0 0 0 0 0 0 0 0 0 0 0 0 0 0 0 0 0 0 0 0 0 0 0 0 0
0 0 0 0 0 0 0 0 0 0 0 0 0 0 0 0 0 0 0 0 0 0 0 0 0 0 0 0 0 0 0 0 0 0 0 0 0 0 0 0 0 0 0 0
0 0 0 0 0 0 0 0 0 0 0 0 0 0 0 0 0 0 0 0 0 0 0 0 0 0 0 0 0 0 0 0 0 0 0 0 0 0 0 0 0 0 0 0
0 0 0 0 0 0 0 0 0 0 0 0 0 0 0 0 0 0 0 0 0 0 0 0 0 0 0 0 0 0 0 0 0 0 0 0 0 0 0 0 0 0 0 0
Wind_Speed
3 5 5 4 4 2 3 4 3 2 1 3 5 5 4 3 4 5 5 5 5 5 5 5 5 5 5 4 4 4 3 3 2 2 1 1 1 1 2 2 3 3 3 3
6 5 3 3 4 4 5 5 3 2 1 4 4 5 4 3 5 5 5 5 5 5 5 6 6 6 5 5 5 4 4 3 3 2 1 1 1 1 2 1 2 2 2 2
5 2 4 6 6 6 6 5 4 3 2 4 5 5 3 3 3 3 4 4 4 5 6 6 6 6 6 6 6 5 5 4 4 3 2 2 2 1 1 1 1 1 2 2
3 3 5 6 5 5 4 3 4 4 5 3 4 4 2 2 3 2 3 4 4 5 5 5 6 6 6 6 6 6 6 5 4 4 4 4 2 2 1 0 1 1 1 2
3 3 5 5 4 4 2 2 3 5 5 5 5 6 2 2 3 2 2 3 3 4 5 5 6 6 5 6 5 5 5 5 5 4 4 4 3 2 1 1 1 0 1 1
2 2 3 2 1 3 4 4 3 5 5 7 4 6 3 1 3 2 2 2 2 3 4 4 4 5 4 4 5 5 5 5 5 5 5 5 4 3 2 1 1 0 0 0
4 4 3 3 4 5 6 5 4 5 5 3 1 5 4 1 2 3 3 2 1 2 3 3 4 4 4 5 5 5 6 6 6 6 5 5 4 4 3 2 1 1 0 0
4 4 4 4 5 5 6 7 5 4 4 2 3 6 1 2 2 3 3 1 1 2 2 3 3 3 4 5 5 6 6 6 6 6 5 5 4 3 2 2 1 1 1 1
3 3 4 3 3 5 6 6 5 6 6 6 4 3 2 1 1 1 1 1 1 2 2 2 2 3 3 4 5 6 6 6 6 6 5 4 4 3 3 2 2 1 1 1
3 3 3 3 5 3 4 3 4 6 6 6 5 5 3 2 2 1 2 2 2 2 2 2 2 2 2 2 3 5 5 5 5 5 4 4 4 4 3 3 2 2 1 1
4 5 4 5 6 5 6 6 5 5 6 6 6 2 1 3 2 3 3 2 2 2 2 2 1 1 1 2 2 3 4 5 5 5 5 5 4 3 3 3 2 2 2 1
2 4 5 5 2 3 6 6 7 7 6 7 7 4 1 2 3 3 2 1 1 1 2 1 1 1 1 1 2 2 3 3 4 5 5 5 4 4 3 3 3 2 2 1
2 5 5 5 5 5 6 5 6 7 7 8 9 4 2 1 2 2 2 1 1 1 1 0 0 1 1 1 1 1 2 3 3 4 5 5 4 4 4 3 3 2 2 1
3 6 7 7 5 4 6 7 7 9 8 9 11 10 7 5 4 3 3 2 1 1 1 1 1 2 1 1 1 1 1 2 3 4 4 4 4 4 3 3 3 2 2 2
4 7 7 7 6 6 8 9 10 12 12 12 12 11 9 7 6 5 4 3 3 2 2 2 2 2 1 2 2 2 2 2 3 3 3 3 3 3 3 3 2 2 2 2
4 6 7 8 6 7 9 10 11 12 12 13 14 13 7 6 5 5 4 4 4 4 3 3 2 2 2 2 2 2 2 3 3 3 3 2 2 3 3 3 3 2 2 1
5 6 7 8 5 7 11 9 10 10 9 10 12 9 6 6 5 5 5 5 5 4 3 3 3 2 2 2 2 2 2 3 3 3 2 2 2 3 3 3 3 2 2 2
7 7 6 7 6 10 3 1 5 7 8 9 9 8 7 7 6 5 5 5 4 4 3 3 3 2 2 2 2 2 3 3 3 2 2 2 2 3 3 3 3 3 2 2
7 7 6 6 8 9 6 3 4 7 8 7 8 8 6 3 5 5 3 3 4 3 3 2 2 2 2 2 2 3 3 3 3 2 2 2 2 3 3 3 3 3 3 3
6 7 7 7 8 8 3 2 2 5 8 4 5 6 5 5 6 2 1 2 2 2 2 2 2 2 2 2 2 3 3 3 3 2 2 2 2 3 3 3 3 3 3 3
5 6 9 9 9 7 1 2 4 7 3 1 4 5 6 7 5 3 0 1 1 2 2 2 2 2 2 2 3 4 4 3 3 2 2 2 2 2 2 2 2 2 2 2
6 5 7 7 9 7 3 5 6 5 4 3 4 5 6 5 3 2 2 2 2 2 2 2 2 2 1 2 3 4 3 2 2 2 2 2 2 1 2 2 2 2 2 2
7 6 4 6 6 3 4 6 6 6 6 5 5 4 5 5 5 4 3 3 2 2 2 2 2 1 1 2 3 3 2 2 3 3 3 2 2 1 2 2 2 2 2 2
5 4 7 8 9 8 8 9 8 8 8 7 5 5 5 5 5 4 3 3 3 3 2 2 2 2 1 2 2 2 3 3 4 4 3 3 2 2 2 1 2 2 2 2
6 5 7 11 10 9 9 9 8 7 7 7 6 6 6 5 5 5 4 3 3 2 2 2 3 2 2 2 2 2 3 4 4 4 3 3 2 2 2 1 1 2 1 1
8 9 9 9 8 7 8 6 6 7 7 6 6 5 5 5 5 5 4 3 3 3 3 2 2 2 2 2 2 3 3 4 4 3 3 2 2 2 2 1 1 2 1 1
Wind_Direction
178 195 194 193 214 238 199 202 202 220 211 235 245 263 261 224 220 229 225 222 218 211 196 186 188 185 180 173 166 158 157 154 145 138 140 127 108 90 78 64 61 60 57 53
182 203 209 188 185 185 198 205 211 208 210 247 260 271 264 228 222 235 237 229 224 212 198 187 191 190 192 181 176 177 176 168 159 152 157 135 113 94 84 71 61 60 57 55
203 156 167 177 180 197 212 224 225 239 228 235 263 248 220 200 212 226 241 242 232 219 211 199 196 194 192 192 188 185 185 177 168 158 152 139 130 133 118 97 66 36 37 47
202 176 180 189 197 216 216 223 226 224 238 244 259 275 240 215 206 220 236 237 234 223 218 211 205 202 198 199 195 193 182 180 171 165 168 167 162 144 126 107 113 80 52 43
182 176 192 207 221 227 222 166 212 232 255 263 239 264 250 195 243 248 230 231 231 223 215 211 207 206 205 197 191 194 182 179 176 173 175 189 180 156 131 129 105 65 55 33
203 192 231 231 191 193 160 166 184 220 244 249 245 259 265 218 275 279 237 229 214 205 199 207 203 197 200 191 187 187 181 179 184 186 186 190 185 171 160 158 161 220 68 353
192 191 190 196 186 179 199 215 218 216 218 236 171 251 261 351 313 291 279 262 217 195 189 185 189 194 191 189 192 189 188 187 187 194 196 194 195 190 185 183 191 223 258 294
212 195 176 196 224 213 210 235 254 259 257 258 218 246 262 39 331 305 285 276 217 207 198 193 198 203 199 195 196 196 195 195 192 201 202 198 194 200 198 198 194 210 256 305
231 191 149 181 223 225 207 221 267 276 271 267 239 242 241 240 259 249 237 234 229 212 203 201 204 206 204 202 202 202 199 198 197 205 202 198 196 200 202 206 204 210 229 252
267 231 191 169 190 201 256 230 222 244 260 260 250 251 254 252 260 250 245 250 246 209 197 197 194 200 207 209 214 209 207 202 199 202 204 199 202 201 198 201 209 216 226 228
255 240 206 202 221 224 198 205 231 249 266 274 272 264 16 288 288 275 273 264 241 214 202 198 182 186 185 186 202 209 210 203 196 197 199 198 193 195 193 193 193 205 210 216
241 263 243 231 216 271 245 240 238 251 252 258 273 277 68 290 297 286 290 287 237 211 201 196 183 171 168 187 197 208 211 200 196 197 195 194 185 184 188 188 185 193 205 212
197 242 244 218 197 196 222 223 238 257 263 254 259 257 112 260 281 298 302 311 286 210 201 192 206 213 199 189 205 205 206 190 183 188 190 188 187 187 192 191 183 192 202 202
247 247 257 264 278 244 231 225 228 239 252 257 258 272 270 274 288 299 300 293 280 251 217 213 227 231 224 209 198 188 182 173 172 179 184 187 190 189 190 188 190 196 203 205
250 254 256 266 273 258 258 247 236 240 251 262 272 275 279 281 284 288 283 275 264 257 246 237 234 232 218 189 175 168 170 164 168 175 183 189 191 186 180 180 189 188 196 212
260 256 259 257 250 252 260 255 245 245 252 257 266 272 280 279 276 276 270 260 255 256 252 250 249 239 223 204 185 175 179 171 173 177 184 185 188 186 185 185 186 183 190 208
240 245 257 263 255 260 253 243 236 236 239 250 261 273 274 273 274 274 269 250 251 255 254 245 245 240 239 235 217 197 186 169 174 179 176 180 183 190 194 191 188 192 200 210
240 243 253 266 257 250 260 189 242 247 250 251 261 274 272 275 282 276 261 252 254 252 246 243 239 236 242 238 221 202 182 172 175 172 173 183 185 190 196 195 195 207 209 211
232 234 239 248 257 264 255 221 223 245 261 249 252 263 266 275 272 250 232 250 260 256 247 243 234 230 228 223 210 191 182 178 175 170 178 193 198 193 195 199 206 213 214 215
201 225 236 239 253 256 258 158 209 250 256 232 245 255 249 242 263 263 166 253 260 260 244 234 227 218 215 208 203 199 193 190 186 182 192 197 201 202 200 207 216 214 213 220
196 212 227 240 251 258 271 147 192 237 290 352 256 256 245 249 289 342 289 251 257 249 234 225 219 220 217 200 201 207 202 202 191 183 182 188 197 207 204 207 211 208 207 213
223 220 220 228 241 247 141 174 224 284 330 289 270 262 255 260 280 267 244 236 230 227 215 213 219 221 211 201 204 207 208 198 177 176 181 191 198 198 206 201 198 203 199 206
232 240 245 235 250 305 208 238 274 301 286 281 271 265 255 249 249 242 239 231 221 221 216 228 227 218 209 209 210 209 199 183 179 183 186 190 191 196 211 206 192 191 200 216
230 242 246 252 256 267 263 263 271 275 275 275 268 257 243 241 239 231 230 227 223 221 222 221 217 211 219 223 215 211 178 179 190 191 189 190 187 189 208 216 203 201 203 213
250 222 245 257 265 271 260 257 269 275 274 270 260 251 242 238 236 230 227 228 228 225 219 219 220 219 218 222 213 192 179 186 193 190 188 190 187 194 202 203 247 241 234 263
231 231 241 258 267 270 279 279 276 270 267 262 256 254 245 239 233 229 229 228 221 214 209 216 226 229 219 214 212 188 186 190 189 185 185 186 189 196 204 198 171 33 321 357